Location: Akdamlar
(36.8729°N, 30.5187°E)
Time: 14:37:45
(UTC+00:00)

Milstar 3 Cent rocket - Pass Details

Date: 18 September 2020
Orbit: 708 x 5145 km, 28.3° (Epoch: 19 October)

Event Time Altitude Azimuth Distance (km) Brightness Sun altitude
Rises 16:58:52 0° 230° (SW) 4,744 6.7 -12.4°
Reaches altitude 10° 17:03:24 10° 216° (SW) 3,142 5.5 -13.3°
Maximum altitude 17:08:28 21° 169° (S) 1,888 3.8 -14.3°
Enters shadow 17:10:43 16° 136° (SE) 1,956 3.6 -14.7°
